Regional Weather Roundup
Issued by NWS

Home | Current Version | Previous Version | Text Only | Print | Product List | Glossary Off
Versions: 1 2 3 4 5 6 7 8 9 10 11 12 13 14 15 16 17 18 19 20 21 22 23 24 25 26 27 28 29 30 31 32 33 34 35 36 37 38 39 40 41 42 43 44 45 46 47 48 49 50

084
ASUS45 KCYS 151710
RWRWY

WYOMING REGIONAL WEATHER ROUNDUP
NATIONAL WEATHER SERVICE CHEYENNE WY
1000 AM MST FRI DEC 15 2017

NOTE:  "FAIR" INDICATES FEW OR NO CLOUDS BELOW 12,000 FEET
WITH NO SIGNIFICANT WEATHER AND/OR OBSTRUCTIONS TO VISIBILITY.

WYZ001-151800-
YELLOWSTONE NATIONAL PARK

CITY           SKY/WX    TMP DP  RH WIND       PRES   REMARKS
LK YELLOWSTONE   N/A     19  17  92 CALM      30.22S
W YELLOWSTONE  NOT AVBL

$$
WYZ002>013-054>058-071-098>099-151800-
NORTHERN WYOMING

CITY           SKY/WX    TMP DP  RH WIND       PRES   REMARKS
JACKSON        CLOUDY    19  12  73 N3        30.26F
CODY           FAIR      28  19  69 N7        29.94F WCI  21
GREYBULL       FAIR      24  17  74 SE3       30.00F
WORLAND        FAIR      25  19  78 SW5       30.00F WCI  19
SHERIDAN       FAIR      35  24  64 NW5       29.83S WCI  31
BUFFALO        FAIR      49   6  17 S9        29.85S
GILLETTE       FAIR      47  17  30 SW14      29.85F
HULETT         FAIR      41  16  36 SW10      29.86R
NEWCASTLE      FAIR      32  25  74 SE7       29.90F WCI  26

$$
WYZ014>020-022>026-101>103-151800-
CENTRAL WYOMING

CITY           SKY/WX    TMP DP  RH WIND       PRES   REMARKS
BIG PINEY      FAIR      21  12  68 W3        30.20S
PINEDALE       FAIR      30  18  59 NW10      30.19R WCI  21
DUBOIS         FAIR      34   7  32 NW18G25   30.08R WCI  23
LANDER         FAIR      19  12  74 N6        30.02F WCI  11
RIVERTON       FAIR      22  18  85 CALM      30.04S
CASPER         FAIR      36  16  44 SW29G37   30.01F WCI  23
DOUGLAS        FAIR      47  18  31 W13       29.94F

$$
WYZ021-027>030-104>119-151800-
SOUTHERN WYOMING

CITY           SKY/WX    TMP DP  RH WIND       PRES   REMARKS
EVANSTON       FAIR      26  16  65 SW10      30.24F WCI  16
FORT BRIDGER   FAIR      38   4  24 W20G28    30.23F WCI  28
ROCK SPRINGS   FAIR      34  13  41 SW10      30.20S WCI  26
DIXON          FAIR      23  14  67 CALM      30.30S
RAWLINS        FAIR      34  15  46 SW8G21    30.14F WCI  27
SARATOGA       FAIR      28  14  54 SE12G18   30.20F WCI  18
LARAMIE        FAIR      32  15  49 W13       30.08S WCI  22
CHEYENNE       FAIR      42  12  29 W30G40    30.00R
TORRINGTON     FAIR      48  15  26 W12       29.94S
PINE BLUFFS    FAIR      43  18  36 MISG      30.00S

$$




USA.gov is the U.S. government's official web portal to all federal, state and local government web resources and services.